ACA1218 CYVR-CYYZ

Flight info

Callsign ACA1218
Flight time N/A
Altitude 39000
Route GRG8/26L ALNOD DCT IKNIX DCT BEVEL DCT 4930N10000W DCT AGLIN DCT OTNIK BOXUM7
Aircraft A339/H-SADE1E2E3GHIJ3J5M1P2RWXY/LB2D1

Departure

Time N/A
Airport Vancouver International Airport (CYVR)

Arrival

Time 2026-05-08 07:02
Airport Toronto Pearson International Airport (CYYZ)
Time Latitude Longitude Altitude Speed Heading
2026-05-08 06:31 45.32538 -81.68010 35197 ft 504 kts 139°
2026-05-08 06:31 45.30006 -81.64654 34626 ft 506 kts 139°
2026-05-08 06:31 45.27434 -81.61249 34043 ft 507 kts 140°
2026-05-08 06:32 45.24863 -81.57851 33431 ft 509 kts 139°
2026-05-08 06:32 45.22276 -81.54438 32856 ft 512 kts 140°
2026-05-08 06:32 45.19664 -81.50996 32219 ft 516 kts 140°
2026-05-08 06:32 45.17055 -81.47563 31586 ft 519 kts 140°
2026-05-08 06:33 45.14400 -81.44072 30986 ft 522 kts 140°
2026-05-08 06:33 45.11752 -81.40595 30359 ft 523 kts 140°
2026-05-08 06:33 45.09108 -81.37130 29790 ft 521 kts 140°
2026-05-08 06:33 45.06446 -81.33645 29245 ft 517 kts 141°
2026-05-08 06:34 45.03842 -81.30238 28769 ft 511 kts 141°
2026-05-08 06:34 45.01243 -81.26842 28323 ft 504 kts 141°
2026-05-08 06:34 44.98700 -81.23525 27882 ft 498 kts 141°
2026-05-08 06:34 44.96182 -81.20245 27447 ft 490 kts 141°
2026-05-08 06:35 44.93702 -81.17019 27040 ft 482 kts 141°
2026-05-08 06:35 44.91276 -81.13867 26613 ft 474 kts 141°
2026-05-08 06:35 44.88878 -81.10750 26193 ft 468 kts 141°
2026-05-08 06:35 44.86488 -81.07653 25782 ft 461 kts 141°
2026-05-08 06:36 44.84161 -81.04640 25360 ft 455 kts 141°
2026-05-08 06:36 44.81843 -81.01642 24954 ft 449 kts 141°
2026-05-08 06:36 44.79572 -80.98711 24554 ft 443 kts 141°
2026-05-08 06:36 44.77313 -80.95793 24132 ft 438 kts 141°
2026-05-08 06:37 44.75077 -80.92909 23667 ft 434 kts 141°
2026-05-08 06:37 44.72883 -80.90088 23219 ft 431 kts 141°
2026-05-08 06:37 44.70687 -80.87265 22788 ft 427 kts 141°
2026-05-08 06:37 44.68527 -80.84487 22343 ft 424 kts 141°
2026-05-08 06:38 44.66337 -80.81678 21877 ft 421 kts 141°
2026-05-08 06:38 44.64193 -80.78931 21445 ft 417 kts 141°
2026-05-08 06:38 44.62083 -80.76228 21023 ft 414 kts 141°
2026-05-08 06:38 44.59955 -80.73505 20581 ft 412 kts 141°
2026-05-08 06:39 44.57840 -80.70802 20135 ft 409 kts 141°
2026-05-08 06:39 44.55751 -80.68137 19702 ft 407 kts 141°
2026-05-08 06:39 44.53683 -80.65501 19265 ft 404 kts 141°
2026-05-08 06:39 44.51611 -80.62862 18835 ft 402 kts 141°
2026-05-08 06:40 44.49560 -80.60253 18414 ft 399 kts 141°
2026-05-08 06:40 44.47504 -80.57638 17989 ft 397 kts 141°
2026-05-08 06:40 44.45482 -80.55071 17573 ft 395 kts 141°
2026-05-08 06:40 44.43459 -80.52504 17144 ft 393 kts 141°
2026-05-08 06:41 44.41445 -80.49950 16717 ft 391 kts 141°
2026-05-08 06:41 44.39454 -80.47430 16304 ft 389 kts 141°
2026-05-08 06:41 44.37436 -80.44877 15878 ft 387 kts 141°
2026-05-08 06:41 44.35477 -80.42400 15464 ft 385 kts 141°
2026-05-08 06:42 44.33480 -80.39874 15037 ft 383 kts 141°
2026-05-08 06:42 44.31525 -80.37408 14626 ft 381 kts 141°
2026-05-08 06:42 44.29556 -80.34927 14216 ft 379 kts 142°
2026-05-08 06:42 44.27617 -80.32484 13817 ft 376 kts 142°
2026-05-08 06:43 44.25689 -80.30058 13408 ft 375 kts 142°
2026-05-08 06:43 44.23752 -80.27622 12998 ft 373 kts 142°
2026-05-08 06:43 44.21851 -80.25235 12591 ft 371 kts 142°
2026-05-08 06:43 44.19938 -80.22839 12183 ft 369 kts 142°
2026-05-08 06:44 44.18044 -80.20464 11785 ft 367 kts 142°
2026-05-08 06:44 44.16145 -80.18080 11377 ft 365 kts 142°
2026-05-08 06:44 44.14281 -80.15740 10973 ft 364 kts 142°
2026-05-08 06:44 44.12415 -80.13401 10564 ft 363 kts 142°
2026-05-08 06:45 44.10545 -80.11056 10253 ft 358 kts 142°
2026-05-08 06:45 44.08725 -80.08777 10159 ft 346 kts 142°
2026-05-08 06:45 44.06971 -80.06581 10074 ft 335 kts 142°
2026-05-08 06:45 44.05267 -80.04449 10002 ft 324 kts 142°
2026-05-08 06:46 44.03627 -80.02402 9949 ft 313 kts 142°
2026-05-08 06:46 44.02004 -80.00455 9944 ft 300 kts 146°
2026-05-08 06:46 44.00344 -79.98782 9792 ft 294 kts 152°
2026-05-08 06:46 43.98619 -79.97245 9455 ft 296 kts 152°
2026-05-08 06:47 43.96894 -79.95736 9162 ft 295 kts 152°
2026-05-08 06:47 43.95152 -79.94212 8894 ft 293 kts 152°
2026-05-08 06:47 43.93446 -79.92712 8634 ft 292 kts 152°
2026-05-08 06:47 43.91726 -79.91194 8368 ft 290 kts 151°
2026-05-08 06:48 43.90034 -79.89700 8152 ft 287 kts 151°
2026-05-08 06:48 43.88378 -79.88233 8103 ft 279 kts 151°
2026-05-08 06:48 43.86752 -79.86797 8045 ft 276 kts 151°
2026-05-08 06:48 43.85163 -79.85370 7962 ft 272 kts 148°
2026-05-08 06:49 43.83707 -79.83765 7869 ft 266 kts 141°
2026-05-08 06:49 43.82338 -79.82000 7618 ft 267 kts 139°
2026-05-08 06:49 43.81012 -79.80238 7379 ft 267 kts 138°
2026-05-08 06:49 43.79663 -79.78443 7127 ft 266 kts 138°
2026-05-08 06:50 43.78327 -79.76675 6915 ft 265 kts 138°
2026-05-08 06:50 43.76995 -79.74916 6692 ft 264 kts 136°
2026-05-08 06:50 43.75974 -79.72813 6428 ft 266 kts 104°
2026-05-08 06:50 43.75992 -79.70315 6183 ft 260 kts 66°
2026-05-08 06:51 43.76971 -79.68338 6010 ft 249 kts 40°
2026-05-08 06:51 43.78239 -79.66768 5975 ft 238 kts 36°
2026-05-08 06:51 43.79448 -79.65289 5973 ft 230 kts 38°
2026-05-08 06:51 43.80622 -79.63753 5985 ft 231 kts 40°
2026-05-08 06:52 43.81766 -79.62176 5996 ft 232 kts 41°
2026-05-08 06:52 43.82884 -79.60585 5988 ft 231 kts 41°
2026-05-08 06:52 43.83984 -79.58993 5976 ft 231 kts 42°
2026-05-08 06:52 43.85083 -79.57391 5849 ft 229 kts 42°
2026-05-08 06:53 43.86188 -79.55781 5595 ft 229 kts 42°
2026-05-08 06:53 43.87291 -79.54173 5371 ft 228 kts 43°
2026-05-08 06:53 43.88376 -79.52587 5143 ft 227 kts 43°
2026-05-08 06:53 43.89460 -79.51002 4898 ft 226 kts 43°
2026-05-08 06:54 43.90544 -79.49416 4661 ft 225 kts 43°
2026-05-08 06:54 43.91612 -79.47854 4445 ft 224 kts 43°
2026-05-08 06:54 43.92685 -79.46282 4226 ft 223 kts 43°
2026-05-08 06:54 43.93564 -79.44553 3967 ft 227 kts 71°
2026-05-08 06:55 43.93503 -79.42387 3722 ft 229 kts 115°
2026-05-08 06:55 43.92489 -79.40762 3523 ft 225 kts 149°
2026-05-08 06:55 43.91036 -79.40130 3301 ft 221 kts 181°
2026-05-08 06:55 43.89567 -79.40605 3065 ft 216 kts 208°
2026-05-08 06:56 43.88270 -79.41594 2981 ft 214 kts 211°
2026-05-08 06:56 43.86963 -79.42612 2981 ft 216 kts 211°
2026-05-08 06:56 43.85633 -79.43619 2979 ft 216 kts 210°
2026-05-08 06:56 43.84292 -79.44606 2979 ft 216 kts 209°
2026-05-08 06:57 43.82959 -79.45572 2975 ft 216 kts 209°
2026-05-08 06:57 43.81624 -79.46529 2976 ft 213 kts 211°
2026-05-08 06:57 43.80442 -79.47628 2970 ft 200 kts 221°
2026-05-08 06:57 43.79446 -79.48878 2981 ft 185 kts 227°
2026-05-08 06:58 43.78606 -79.50106 2965 ft 165 kts 230°
2026-05-08 06:58 43.77870 -79.51205 2944 ft 145 kts 230°
2026-05-08 06:58 43.77194 -79.52208 2847 ft 141 kts 230°
2026-05-08 06:58 43.76525 -79.53192 2650 ft 140 kts 229°
2026-05-08 06:59 43.75862 -79.54156 2453 ft 139 kts 229°
2026-05-08 06:59 43.75187 -79.55135 2254 ft 139 kts 229°
2026-05-08 06:59 43.74522 -79.56095 2062 ft 139 kts 228°
2026-05-08 06:59 43.73852 -79.57066 1870 ft 138 kts 228°
2026-05-08 07:00 43.73194 -79.58019 1685 ft 138 kts 228°
2026-05-08 07:00 43.72529 -79.58982 1499 ft 137 kts 228°
2026-05-08 07:00 43.71865 -79.59953 1311 ft 137 kts 228°
2026-05-08 07:00 43.71206 -79.60915 1119 ft 137 kts 227°
2026-05-08 07:01 43.70543 -79.61861 930 ft 137 kts 227°
2026-05-08 07:01 43.69884 -79.62820 743 ft 137 kts 227°
2026-05-08 07:01 43.69231 -79.63773 556 ft 136 kts 227°
2026-05-08 07:01 43.68648 -79.64624 551 ft 99 kts 225°
2026-05-08 07:02 43.68285 -79.65144 551 ft 57 kts 226°
2026-05-08 07:02 43.68098 -79.65395 562 ft 28 kts 212°
2026-05-08 07:02 43.67944 -79.65477 565 ft 14 kts 196°
2026-05-08 07:02 43.67855 -79.65466 567 ft 16 kts 140°
2026-05-08 07:03 43.67863 -79.65355 565 ft 11 kts 47°
2026-05-08 07:03 43.67939 -79.65243 559 ft 20 kts 46°
2026-05-08 07:03 43.68044 -79.65090 553 ft 22 kts 46°
2026-05-08 07:03 43.68160 -79.64923 546 ft 25 kts 46°
2026-05-08 07:04 43.68280 -79.64747 545 ft 24 kts 46°
2026-05-08 07:04 43.68335 -79.64640 545 ft 8 kts 89°
2026-05-08 07:04 43.68267 -79.64516 543 ft 19 kts 136°
2026-05-08 07:04 43.68204 -79.64434 542 ft 16 kts 136°
2026-05-08 07:05 43.68112 -79.64313 540 ft 19 kts 136°
2026-05-08 07:05 43.68012 -79.64182 538 ft 20 kts 136°
2026-05-08 07:05 43.67911 -79.64052 538 ft 16 kts 135°
2026-05-08 07:05 43.67878 -79.63979 539 ft 7 kts 88°
2026-05-08 07:06 43.67907 -79.63912 541 ft 9 kts 49°
2026-05-08 07:06 43.67946 -79.63832 541 ft 10 kts 69°
2026-05-08 07:06 43.67956 -79.63761 544 ft 1 kts 81°
2026-05-08 07:06 43.67956 -79.63760 544 ft 0 kts 81°